Year,Month,Day,Hour,Minute,Value (Times are PST for temperature in C)
2015,07,20,01,16,14.20
2015,07,20,01,17,14.20
2015,07,20,01,18,14.20
2015,07,20,01,19,14.20
2015,07,20,01,20,14.20
2015,07,20,01,21,14.20
2015,07,20,01,22,14.20
2015,07,20,01,23,14.20
2015,07,20,01,24,14.20
2015,07,20,01,25,14.20
2015,07,20,01,26,14.20
2015,07,20,01,27,14.20
2015,07,20,01,28,14.20
2015,07,20,01,29,14.20
2015,07,20,01,30,14.20
2015,07,20,01,31,14.20
2015,07,20,01,32,14.20
2015,07,20,01,33,14.20
2015,07,20,01,34,14.20
2015,07,20,01,35,14.20
2015,07,20,01,36,14.20
2015,07,20,01,37,14.20
2015,07,20,01,38,14.20
2015,07,20,01,39,14.20
2015,07,20,01,40,14.20
2015,07,20,01,41,14.20
2015,07,20,01,42,14.20
2015,07,20,01,43,14.20
2015,07,20,01,44,14.20
2015,07,20,01,45,14.20
2015,07,20,01,46,13.80
2015,07,20,01,47,13.80
2015,07,20,01,48,13.80
2015,07,20,01,49,13.80
2015,07,20,01,50,13.80
2015,07,20,01,51,13.80
2015,07,20,01,52,13.80
2015,07,20,01,53,13.80
2015,07,20,01,54,13.80
2015,07,20,01,55,13.80
2015,07,20,01,56,13.80
2015,07,20,01,57,13.80
2015,07,20,01,58,13.80
2015,07,20,01,59,13.80
2015,07,20,02,00,13.80
2015,07,20,02,01,13.80
2015,07,20,02,02,13.80
2015,07,20,02,03,13.80
2015,07,20,02,04,13.80
2015,07,20,02,05,13.80
2015,07,20,02,06,13.80
2015,07,20,02,07,13.80
2015,07,20,02,08,13.80
2015,07,20,02,09,13.80
2015,07,20,02,10,13.80
2015,07,20,02,11,13.80
2015,07,20,02,12,13.80
2015,07,20,02,13,13.80
2015,07,20,02,14,13.80
2015,07,20,02,15,13.80
2015,07,20,02,16,14.10
2015,07,20,02,17,14.10
2015,07,20,02,18,14.10
2015,07,20,02,19,14.10
2015,07,20,02,20,14.10
2015,07,20,02,21,14.10
2015,07,20,02,22,14.10
2015,07,20,02,23,14.10
2015,07,20,02,24,14.10
2015,07,20,02,25,14.10
2015,07,20,02,26,14.10
2015,07,20,02,27,14.10
2015,07,20,02,28,14.10
2015,07,20,02,29,14.10
2015,07,20,02,30,14.10
2015,07,20,02,31,14.10
2015,07,20,02,32,14.10
2015,07,20,02,33,14.10
2015,07,20,02,34,14.10
2015,07,20,02,35,14.10
2015,07,20,02,36,14.10
2015,07,20,02,37,14.10
2015,07,20,02,38,14.10
2015,07,20,02,39,14.10
2015,07,20,02,40,14.10
2015,07,20,02,41,14.10
2015,07,20,02,42,14.10
2015,07,20,02,43,14.10
2015,07,20,02,44,14.10
2015,07,20,02,45,14.10
2015,07,20,02,46,13.60
2015,07,20,02,47,13.60
2015,07,20,02,48,13.60
2015,07,20,02,49,13.60
2015,07,20,02,50,13.60
2015,07,20,02,51,13.60
2015,07,20,02,52,13.60
2015,07,20,02,53,13.60
2015,07,20,02,54,13.60
2015,07,20,02,55,13.60
2015,07,20,02,56,13.60
2015,07,20,02,57,13.60
2015,07,20,02,58,13.60
2015,07,20,02,59,13.60
2015,07,20,03,00,13.60
2015,07,20,03,01,13.60
2015,07,20,03,02,13.60
2015,07,20,03,03,13.60
2015,07,20,03,04,13.60
2015,07,20,03,05,13.60
2015,07,20,03,06,13.60
2015,07,20,03,07,13.60
2015,07,20,03,08,13.60
2015,07,20,03,09,13.60
2015,07,20,03,10,13.60
2015,07,20,03,11,13.60
2015,07,20,03,12,13.60
2015,07,20,03,13,13.60
2015,07,20,03,14,13.60
2015,07,20,03,15,13.60
2015,07,20,03,16,13.70
2015,07,20,03,17,13.70
2015,07,20,03,18,13.70
2015,07,20,03,19,13.70
2015,07,20,03,20,13.70
2015,07,20,03,21,13.70
2015,07,20,03,22,13.70
2015,07,20,03,23,13.70
2015,07,20,03,24,13.70
2015,07,20,03,25,13.70
2015,07,20,03,26,13.70
2015,07,20,03,27,13.70
2015,07,20,03,28,13.70
2015,07,20,03,29,13.70
2015,07,20,03,30,13.70
2015,07,20,03,31,13.70
2015,07,20,03,32,13.70
2015,07,20,03,33,13.70
2015,07,20,03,34,13.70
2015,07,20,03,35,13.70
2015,07,20,03,36,13.70
2015,07,20,03,37,13.70
2015,07,20,03,38,13.70
2015,07,20,03,39,13.70
2015,07,20,03,40,13.70
2015,07,20,03,41,13.70
2015,07,20,03,42,13.70
2015,07,20,03,43,13.70
2015,07,20,03,44,13.70
2015,07,20,03,45,13.70
2015,07,20,03,46,14.10
2015,07,20,03,47,14.10
2015,07,20,03,48,14.10
2015,07,20,03,49,14.10
2015,07,20,03,50,14.10
2015,07,20,03,51,14.10
2015,07,20,03,52,14.10
2015,07,20,03,53,14.10
2015,07,20,03,54,14.10
2015,07,20,03,55,14.10
2015,07,20,03,56,14.10
2015,07,20,03,57,14.10
2015,07,20,03,58,14.10
2015,07,20,03,59,14.10
2015,07,20,04,00,14.10
2015,07,20,04,01,14.10
2015,07,20,04,02,14.10
2015,07,20,04,03,14.10
2015,07,20,04,04,14.10
2015,07,20,04,05,14.10
2015,07,20,04,06,14.10
2015,07,20,04,07,14.10
2015,07,20,04,08,14.10
2015,07,20,04,09,14.10
2015,07,20,04,10,14.10
2015,07,20,04,11,14.10
2015,07,20,04,12,14.10
2015,07,20,04,13,14.10
2015,07,20,04,14,14.10
2015,07,20,04,15,14.10
2015,07,20,04,16,13.40
2015,07,20,04,17,13.40
2015,07,20,04,18,13.40
2015,07,20,04,19,13.40
2015,07,20,04,20,13.40
2015,07,20,04,21,13.40
2015,07,20,04,22,13.40
2015,07,20,04,23,13.40
2015,07,20,04,24,13.40
2015,07,20,04,25,13.40
2015,07,20,04,26,13.40
2015,07,20,04,27,13.40
2015,07,20,04,28,13.40
2015,07,20,04,29,13.40
2015,07,20,04,30,13.40
2015,07,20,04,31,13.40
2015,07,20,04,32,13.40
2015,07,20,04,33,13.40
2015,07,20,04,34,13.40
2015,07,20,04,35,13.40
2015,07,20,04,36,13.40
2015,07,20,04,37,13.40
2015,07,20,04,38,13.40
2015,07,20,04,39,13.40
2015,07,20,04,40,13.40
2015,07,20,04,41,13.40
2015,07,20,04,42,13.40
2015,07,20,04,43,13.40
2015,07,20,04,44,13.40
2015,07,20,04,45,13.40
2015,07,20,04,46,13.70
2015,07,20,04,47,13.70
2015,07,20,04,48,13.70
2015,07,20,04,49,13.70
2015,07,20,04,50,13.70
2015,07,20,04,51,13.70
2015,07,20,04,52,13.70
2015,07,20,04,53,13.70
2015,07,20,04,54,13.70
2015,07,20,04,55,13.70
2015,07,20,04,56,13.70
2015,07,20,04,57,13.70
2015,07,20,04,58,13.70
2015,07,20,04,59,13.70
2015,07,20,05,00,13.70
2015,07,20,05,01,13.70
2015,07,20,05,02,13.70
2015,07,20,05,03,13.70
2015,07,20,05,04,13.70
2015,07,20,05,05,13.70
2015,07,20,05,06,13.70
2015,07,20,05,07,13.70
2015,07,20,05,08,13.70
2015,07,20,05,09,13.70
2015,07,20,05,10,13.70
2015,07,20,05,11,13.70
2015,07,20,05,12,13.70
2015,07,20,05,13,13.70
2015,07,20,05,14,13.70
2015,07,20,05,15,13.70
2015,07,20,05,16,13.80
2015,07,20,05,17,13.80
2015,07,20,05,18,13.80
2015,07,20,05,19,13.80
2015,07,20,05,20,13.80
2015,07,20,05,21,13.80
2015,07,20,05,22,13.80
2015,07,20,05,23,13.80
2015,07,20,05,24,13.80
2015,07,20,05,25,13.80
2015,07,20,05,26,13.80
2015,07,20,05,27,13.80
2015,07,20,05,28,13.80
2015,07,20,05,29,13.80
2015,07,20,05,30,13.80
2015,07,20,05,31,13.80
2015,07,20,05,32,13.80
2015,07,20,05,33,13.80
2015,07,20,05,34,13.80
2015,07,20,05,35,13.80
2015,07,20,05,36,13.80
2015,07,20,05,37,13.80
2015,07,20,05,38,13.80
2015,07,20,05,39,13.80
2015,07,20,05,40,13.80
2015,07,20,05,41,13.80
2015,07,20,05,42,13.80
2015,07,20,05,43,13.80
2015,07,20,05,44,13.80
2015,07,20,05,45,13.80
2015,07,20,05,46,13.30
2015,07,20,05,47,13.30
2015,07,20,05,48,13.30
2015,07,20,05,49,13.30
2015,07,20,05,50,13.30
2015,07,20,05,51,13.30
2015,07,20,05,52,13.30
2015,07,20,05,53,13.30
2015,07,20,05,54,13.30
2015,07,20,05,55,13.30
2015,07,20,05,56,13.30
2015,07,20,05,57,13.30
2015,07,20,05,58,13.30
2015,07,20,05,59,13.30
2015,07,20,06,00,13.30
2015,07,20,06,01,13.30
2015,07,20,06,02,13.30
2015,07,20,06,03,13.30
2015,07,20,06,04,13.30
2015,07,20,06,05,13.30
2015,07,20,06,06,13.30
2015,07,20,06,07,13.30
2015,07,20,06,08,13.30
2015,07,20,06,09,13.30
2015,07,20,06,10,13.30
2015,07,20,06,11,13.30
2015,07,20,06,12,13.30
2015,07,20,06,13,13.30
2015,07,20,06,14,13.30
2015,07,20,06,15,13.30
2015,07,20,06,16,13.30
2015,07,20,06,18,13.40
2015,07,20,06,19,13.40
2015,07,20,06,20,13.40
2015,07,20,06,21,13.40
2015,07,20,06,23,13.40
2015,07,20,06,24,13.40
2015,07,20,06,25,13.40
2015,07,20,06,26,13.40
2015,07,20,06,27,13.40
2015,07,20,06,28,13.40
2015,07,20,06,29,13.40
2015,07,20,06,30,13.40
2015,07,20,06,31,13.40
2015,07,20,06,32,13.40
2015,07,20,06,33,13.40
2015,07,20,06,34,13.40
2015,07,20,06,35,13.40
2015,07,20,06,36,13.40
2015,07,20,06,37,13.40
2015,07,20,06,38,13.40
2015,07,20,06,39,13.40
2015,07,20,06,40,13.40
2015,07,20,06,41,13.40
2015,07,20,06,42,13.40
2015,07,20,06,43,13.40
2015,07,20,06,44,13.40
2015,07,20,06,45,13.40
2015,07,20,06,46,13.30
2015,07,20,06,47,13.30
2015,07,20,06,48,13.30
2015,07,20,06,49,13.30
2015,07,20,06,50,13.30
2015,07,20,06,51,13.30
2015,07,20,06,52,13.30
2015,07,20,06,53,13.30
2015,07,20,06,54,13.30
2015,07,20,06,55,13.30
2015,07,20,06,56,13.30
2015,07,20,06,57,13.30
2015,07,20,06,58,13.30
2015,07,20,06,59,13.30
2015,07,20,07,00,13.30
2015,07,20,07,01,13.30
2015,07,20,07,02,13.30
2015,07,20,07,03,13.30
2015,07,20,07,04,13.30
2015,07,20,07,05,13.30
2015,07,20,07,06,13.30
2015,07,20,07,07,13.30
2015,07,20,07,08,13.30
2015,07,20,07,09,13.30
2015,07,20,07,10,13.30
2015,07,20,07,11,13.30
2015,07,20,07,12,13.30
2015,07,20,07,13,13.30
2015,07,20,07,14,13.30
2015,07,20,07,15,13.30
2015,07,20,07,16,13.40
2015,07,20,07,17,13.40
2015,07,20,07,18,13.40
2015,07,20,07,19,13.40
2015,07,20,07,20,13.40
2015,07,20,07,21,13.40
2015,07,20,07,22,13.40
2015,07,20,07,23,13.40
2015,07,20,07,24,13.40
2015,07,20,07,25,13.40
2015,07,20,07,26,13.40
2015,07,20,07,27,13.40
2015,07,20,07,28,13.40
2015,07,20,07,29,13.40
2015,07,20,07,30,13.40
2015,07,20,07,31,13.40
2015,07,20,07,32,13.40
2015,07,20,07,33,13.40
2015,07,20,07,34,13.40
2015,07,20,07,35,13.40
2015,07,20,07,36,13.40
2015,07,20,07,37,13.40
2015,07,20,07,38,13.40
2015,07,20,07,39,13.40
2015,07,20,07,40,13.40
2015,07,20,07,41,13.40
2015,07,20,07,42,13.40
2015,07,20,07,43,13.40
2015,07,20,07,44,13.40
2015,07,20,07,45,13.40
2015,07,20,07,46,13.70
2015,07,20,07,47,13.70
2015,07,20,07,48,13.70
2015,07,20,07,49,13.70
2015,07,20,07,50,13.70
2015,07,20,07,51,13.70
2015,07,20,07,52,13.70
2015,07,20,07,53,13.70
2015,07,20,07,54,13.70
2015,07,20,07,55,13.70
2015,07,20,07,56,13.70
2015,07,20,07,57,13.70
2015,07,20,07,58,13.70
2015,07,20,07,59,13.70
2015,07,20,08,00,13.70
2015,07,20,08,01,13.70
2015,07,20,08,02,13.70
2015,07,20,08,03,13.70
2015,07,20,08,04,13.70
2015,07,20,08,05,13.70
2015,07,20,08,06,13.70
2015,07,20,08,07,13.70
2015,07,20,08,08,13.70
2015,07,20,08,09,13.70
2015,07,20,08,10,13.70
2015,07,20,08,11,13.70
2015,07,20,08,12,13.70
2015,07,20,08,13,13.70
2015,07,20,08,14,13.70
2015,07,20,08,15,13.70
2015,07,20,08,16,13.80
2015,07,20,08,17,13.80
2015,07,20,08,18,13.80
2015,07,20,08,19,13.80
2015,07,20,08,20,13.80
2015,07,20,08,21,13.80
2015,07,20,08,22,13.80
2015,07,20,08,23,13.80
2015,07,20,08,24,13.80
2015,07,20,08,25,13.80
2015,07,20,08,26,13.80
2015,07,20,08,27,13.80
2015,07,20,08,28,13.80
2015,07,20,08,29,13.80
2015,07,20,08,30,13.80
2015,07,20,08,31,13.80
2015,07,20,08,32,13.80
2015,07,20,08,33,13.80
2015,07,20,08,34,13.80
2015,07,20,08,35,13.80
2015,07,20,08,36,13.80
2015,07,20,08,37,13.80
2015,07,20,08,38,13.80
2015,07,20,08,39,13.80
2015,07,20,08,40,13.80
2015,07,20,08,41,13.80
2015,07,20,08,42,13.80
2015,07,20,08,43,13.80
2015,07,20,08,44,13.80
2015,07,20,08,45,13.80
2015,07,20,08,46,13.50
2015,07,20,08,47,13.50
2015,07,20,08,48,13.50
2015,07,20,08,49,13.50
2015,07,20,08,50,13.50
2015,07,20,08,51,13.50
2015,07,20,08,52,13.50
2015,07,20,08,53,13.50
2015,07,20,08,54,13.50
2015,07,20,08,55,13.50
2015,07,20,08,56,13.50
2015,07,20,08,57,13.50
2015,07,20,08,58,13.50
2015,07,20,08,59,13.50
2015,07,20,09,00,13.50
2015,07,20,09,01,13.50
2015,07,20,09,02,13.50
2015,07,20,09,03,13.50
2015,07,20,09,04,13.50
2015,07,20,09,05,13.50
2015,07,20,09,06,13.50
2015,07,20,09,07,13.50
2015,07,20,09,08,13.50
2015,07,20,09,09,13.50
2015,07,20,09,10,13.50
2015,07,20,09,11,13.50
2015,07,20,09,12,13.50
2015,07,20,09,13,13.50
2015,07,20,09,14,13.50
2015,07,20,09,15,13.50
2015,07,20,09,16,13.70
2015,07,20,09,17,13.70
2015,07,20,09,18,13.70
2015,07,20,09,19,13.70
2015,07,20,09,20,13.70
2015,07,20,09,21,13.70
2015,07,20,09,22,13.70
2015,07,20,09,23,13.70
2015,07,20,09,24,13.70
2015,07,20,09,25,13.70
2015,07,20,09,26,13.70
2015,07,20,09,27,13.70
2015,07,20,09,28,13.70
2015,07,20,09,29,13.70
2015,07,20,09,30,13.70
2015,07,20,09,31,13.70
2015,07,20,09,32,13.70
2015,07,20,09,33,13.70
2015,07,20,09,34,13.70
2015,07,20,09,35,13.70
2015,07,20,09,36,13.70
2015,07,20,09,37,13.70
2015,07,20,09,38,13.70
2015,07,20,09,39,13.70
2015,07,20,09,40,13.70
2015,07,20,09,41,13.70
2015,07,20,09,42,13.70
2015,07,20,09,43,13.70
2015,07,20,09,44,13.70
2015,07,20,09,45,13.70
2015,07,20,09,46,13.60
2015,07,20,09,47,13.60
2015,07,20,09,48,13.60
2015,07,20,09,49,13.60
2015,07,20,09,50,13.60
2015,07,20,09,51,13.60
2015,07,20,09,52,13.60
2015,07,20,09,53,13.60
2015,07,20,09,54,13.60
2015,07,20,09,55,13.60
2015,07,20,09,56,13.60
2015,07,20,09,57,13.60
2015,07,20,09,58,13.60
2015,07,20,09,59,13.60
2015,07,20,10,00,13.60
2015,07,20,10,01,13.60
2015,07,20,10,02,13.60
2015,07,20,10,03,13.60
2015,07,20,10,04,13.60
2015,07,20,10,05,13.60
2015,07,20,10,06,13.60
2015,07,20,10,07,13.60
2015,07,20,10,08,13.60
2015,07,20,10,09,13.60
2015,07,20,10,10,13.60
2015,07,20,10,11,13.60
2015,07,20,10,12,13.60
2015,07,20,10,13,13.60
2015,07,20,10,14,13.60
2015,07,20,10,15,13.60
2015,07,20,10,16,14.50
2015,07,20,10,17,14.50
2015,07,20,10,18,14.50
2015,07,20,10,19,14.50
2015,07,20,10,20,14.50
2015,07,20,10,21,14.50
2015,07,20,10,22,14.50
2015,07,20,10,23,14.50
2015,07,20,10,24,14.50
2015,07,20,10,25,14.50
2015,07,20,10,26,14.50
2015,07,20,10,27,14.50
2015,07,20,10,28,14.50
2015,07,20,10,29,14.50
2015,07,20,10,30,14.50
2015,07,20,10,31,14.50
2015,07,20,10,32,14.50
2015,07,20,10,33,14.50
2015,07,20,10,34,14.50
2015,07,20,10,35,14.50
2015,07,20,10,36,14.50
2015,07,20,10,37,14.50
2015,07,20,10,38,14.50
2015,07,20,10,39,14.50
2015,07,20,10,40,14.50
2015,07,20,10,41,14.50
2015,07,20,10,42,14.50
2015,07,20,10,43,14.50
2015,07,20,10,44,14.50
2015,07,20,10,45,14.50
2015,07,20,10,46,14.70
2015,07,20,10,47,14.70
2015,07,20,10,48,14.70
2015,07,20,10,49,14.70
2015,07,20,10,50,14.70
2015,07,20,10,51,14.70
2015,07,20,10,52,14.70
2015,07,20,10,53,14.70
2015,07,20,10,54,14.70
2015,07,20,10,55,14.70
2015,07,20,10,56,14.70
2015,07,20,10,57,14.70
2015,07,20,10,58,14.70
2015,07,20,10,59,14.70
2015,07,20,11,00,14.70
2015,07,20,11,01,14.70
2015,07,20,11,02,14.70
2015,07,20,11,03,14.70
2015,07,20,11,04,14.70
2015,07,20,11,05,14.70
2015,07,20,11,06,14.70
2015,07,20,11,07,14.70
2015,07,20,11,08,14.70
2015,07,20,11,09,14.70
2015,07,20,11,10,14.70
2015,07,20,11,11,14.70
2015,07,20,11,12,14.70
2015,07,20,11,13,14.70
2015,07,20,11,14,14.70
2015,07,20,11,15,14.70
2015,07,20,11,16,14.90
2015,07,20,11,17,14.90
2015,07,20,11,18,14.90
2015,07,20,11,19,14.90
2015,07,20,11,20,14.90
2015,07,20,11,21,14.90
2015,07,20,11,22,14.90
2015,07,20,11,23,14.90
2015,07,20,11,24,14.90
2015,07,20,11,25,14.90
2015,07,20,11,26,14.90
2015,07,20,11,27,14.90
2015,07,20,11,28,14.90
2015,07,20,11,29,14.90
2015,07,20,11,30,14.90
2015,07,20,11,31,14.90
2015,07,20,11,32,14.90
2015,07,20,11,33,14.90
2015,07,20,11,34,14.90
2015,07,20,11,35,14.90
2015,07,20,11,36,14.90
2015,07,20,11,37,14.90
2015,07,20,11,38,14.90
2015,07,20,11,39,14.90
2015,07,20,11,40,14.90
2015,07,20,11,41,14.90
2015,07,20,11,42,14.90
2015,07,20,11,43,14.90
2015,07,20,11,44,14.90
2015,07,20,11,45,14.90
2015,07,20,11,46,15.30
2015,07,20,11,47,15.30
2015,07,20,11,48,15.30
2015,07,20,11,49,15.30
2015,07,20,11,50,15.30
2015,07,20,11,51,15.30
2015,07,20,11,52,15.30
2015,07,20,11,53,15.30
2015,07,20,11,54,15.30
2015,07,20,11,55,15.30
2015,07,20,11,56,15.30
2015,07,20,11,57,15.30
2015,07,20,11,58,15.30
2015,07,20,11,59,15.30
2015,07,20,12,00,15.30
2015,07,20,12,01,15.30
2015,07,20,12,02,15.30
2015,07,20,12,03,15.30
2015,07,20,12,04,15.30
2015,07,20,12,05,15.30
2015,07,20,12,06,15.30
2015,07,20,12,07,15.30
2015,07,20,12,08,15.30
2015,07,20,12,09,15.30
2015,07,20,12,10,15.30
2015,07,20,12,11,15.30
2015,07,20,12,12,15.30
2015,07,20,12,13,15.30
2015,07,20,12,14,15.30
2015,07,20,12,15,15.30
2015,07,20,12,16,15.30
2015,07,20,12,17,15.30
2015,07,20,12,18,15.30
2015,07,20,12,19,15.30
2015,07,20,12,20,15.30
2015,07,20,12,21,15.30
2015,07,20,12,22,15.30
2015,07,20,12,23,15.30
2015,07,20,12,24,15.30
2015,07,20,12,25,15.30
2015,07,20,12,26,15.30
2015,07,20,12,27,15.30
2015,07,20,12,28,15.30
2015,07,20,12,29,15.30
2015,07,20,12,30,15.30
2015,07,20,12,31,15.30
2015,07,20,12,32,15.30
2015,07,20,12,33,15.30
2015,07,20,12,34,15.30
2015,07,20,12,35,15.30
2015,07,20,12,36,15.30
2015,07,20,12,37,15.30
2015,07,20,12,38,15.30
2015,07,20,12,39,15.30
2015,07,20,12,40,15.30
2015,07,20,12,41,15.30
2015,07,20,12,42,15.30
2015,07,20,12,43,15.30
2015,07,20,12,44,15.30
2015,07,20,12,45,15.30
2015,07,20,12,46,14.70
2015,07,20,12,47,14.70
2015,07,20,12,48,14.70
2015,07,20,12,49,14.70
2015,07,20,12,50,14.70
2015,07,20,12,51,14.70
2015,07,20,12,52,14.70
2015,07,20,12,53,14.70
2015,07,20,12,54,14.70
2015,07,20,12,55,14.70
2015,07,20,12,56,14.70
2015,07,20,12,57,14.70
2015,07,20,12,58,14.70
2015,07,20,12,59,14.70
2015,07,20,13,00,14.70
2015,07,20,13,01,14.70
2015,07,20,13,02,14.70
2015,07,20,13,03,14.70
2015,07,20,13,04,14.70
2015,07,20,13,05,14.70
2015,07,20,13,06,14.70
2015,07,20,13,07,14.70
2015,07,20,13,08,14.70
2015,07,20,13,09,14.70
2015,07,20,13,10,14.70
2015,07,20,13,11,14.70
2015,07,20,13,12,14.70
2015,07,20,13,13,14.70
2015,07,20,13,14,14.70
2015,07,20,13,15,14.70
2015,07,20,13,16,15.40
2015,07,20,13,17,15.40
2015,07,20,13,18,15.40
2015,07,20,13,19,15.40
2015,07,20,13,20,15.40
2015,07,20,13,21,15.40
2015,07,20,13,22,15.40
2015,07,20,13,23,15.40
2015,07,20,13,24,15.40
2015,07,20,13,25,15.40
2015,07,20,13,26,15.40
2015,07,20,13,27,15.40
2015,07,20,13,28,15.40
2015,07,20,13,29,15.40
2015,07,20,13,30,15.40
2015,07,20,13,31,15.40
2015,07,20,13,32,15.40
2015,07,20,13,33,15.40
2015,07,20,13,34,15.40
2015,07,20,13,35,15.40
2015,07,20,13,36,15.40
2015,07,20,13,37,15.40
2015,07,20,13,38,15.40
2015,07,20,13,39,15.40
2015,07,20,13,40,15.40
2015,07,20,13,41,15.40
2015,07,20,13,42,15.40
2015,07,20,13,43,15.40
2015,07,20,13,44,15.40
2015,07,20,13,45,15.40
2015,07,20,13,46,16.10
2015,07,20,13,47,16.10
2015,07,20,13,48,16.10
2015,07,20,13,49,16.10
2015,07,20,13,50,16.10
2015,07,20,13,51,16.10
2015,07,20,13,52,16.10
2015,07,20,13,53,16.10
2015,07,20,13,54,16.10
2015,07,20,13,55,16.10
2015,07,20,13,56,16.10
2015,07,20,13,57,16.10
2015,07,20,13,58,16.10
2015,07,20,13,59,16.10
2015,07,20,14,00,16.10
2015,07,20,14,01,16.10
2015,07,20,14,02,16.10
2015,07,20,14,03,16.10
2015,07,20,14,04,16.10
2015,07,20,14,05,16.10
2015,07,20,14,06,16.10
2015,07,20,14,07,16.10
2015,07,20,14,08,16.10
2015,07,20,14,09,16.10
2015,07,20,14,10,16.10
2015,07,20,14,11,16.10
2015,07,20,14,12,16.10
2015,07,20,14,13,16.10
2015,07,20,14,14,16.10
2015,07,20,14,15,16.10
2015,07,20,14,16,15.70
2015,07,20,14,17,15.70
2015,07,20,14,18,15.70
2015,07,20,14,19,15.70
2015,07,20,14,20,15.70
2015,07,20,14,21,15.70
2015,07,20,14,22,15.70
2015,07,20,14,23,15.70
2015,07,20,14,24,15.70
2015,07,20,14,25,15.70
2015,07,20,14,26,15.70
2015,07,20,14,27,15.70
2015,07,20,14,28,15.70
2015,07,20,14,29,15.70
2015,07,20,14,30,15.70
2015,07,20,14,31,15.70
2015,07,20,14,32,15.70
2015,07,20,14,33,15.70
2015,07,20,14,34,15.70
2015,07,20,14,35,15.70
2015,07,20,14,36,15.70
2015,07,20,14,37,15.70
2015,07,20,14,38,15.70
2015,07,20,14,39,15.70
2015,07,20,14,40,15.70
2015,07,20,14,41,15.70
2015,07,20,14,42,15.70
2015,07,20,14,43,15.70
2015,07,20,14,44,15.70
2015,07,20,14,45,15.70
2015,07,20,14,46,16.00
2015,07,20,14,47,16.00
2015,07,20,14,48,16.00
2015,07,20,14,49,16.00
2015,07,20,14,50,16.00
2015,07,20,14,51,16.00
2015,07,20,14,52,16.00
2015,07,20,14,53,16.00
2015,07,20,14,54,16.00
2015,07,20,14,55,16.00
2015,07,20,14,56,16.00
2015,07,20,14,57,16.00
2015,07,20,14,58,16.00
2015,07,20,14,59,16.00
2015,07,20,15,00,16.00
2015,07,20,15,01,16.00
2015,07,20,15,02,16.00
2015,07,20,15,03,16.00
2015,07,20,15,04,16.00
2015,07,20,15,05,16.00
2015,07,20,15,06,16.00
2015,07,20,15,07,16.00
2015,07,20,15,08,16.00
2015,07,20,15,09,16.00
2015,07,20,15,10,16.00
2015,07,20,15,11,16.00
2015,07,20,15,12,16.00
2015,07,20,15,13,16.00
2015,07,20,15,14,16.00
2015,07,20,15,15,16.00
2015,07,20,15,16,15.80
2015,07,20,15,17,15.80
2015,07,20,15,18,15.80
2015,07,20,15,19,15.80
2015,07,20,15,20,15.80
2015,07,20,15,21,15.80
2015,07,20,15,22,15.80
2015,07,20,15,23,15.80
2015,07,20,15,24,15.80
2015,07,20,15,25,15.80
2015,07,20,15,26,15.80
2015,07,20,15,27,15.80
2015,07,20,15,28,15.80
2015,07,20,15,29,15.80
2015,07,20,15,30,15.80
2015,07,20,15,31,15.80
2015,07,20,15,32,15.80
2015,07,20,15,33,15.80
2015,07,20,15,34,15.80
2015,07,20,15,35,15.80
2015,07,20,15,36,15.80
2015,07,20,15,37,15.80
2015,07,20,15,38,15.80
2015,07,20,15,39,15.80
2015,07,20,15,40,15.80
2015,07,20,15,41,15.80
2015,07,20,15,42,15.80
2015,07,20,15,43,15.80
2015,07,20,15,44,15.80
2015,07,20,15,45,15.80
2015,07,20,15,46,16.30
2015,07,20,15,47,16.30
2015,07,20,15,48,16.30
2015,07,20,15,49,16.30
2015,07,20,15,50,16.30
2015,07,20,15,51,16.30
2015,07,20,15,52,16.30
2015,07,20,15,53,16.30
2015,07,20,15,54,16.30
2015,07,20,15,55,16.30
2015,07,20,15,56,16.30
2015,07,20,15,57,16.30
2015,07,20,15,58,16.30
2015,07,20,15,59,16.30
2015,07,20,16,00,16.30
2015,07,20,16,01,16.30
2015,07,20,16,02,16.30
2015,07,20,16,03,16.30
2015,07,20,16,04,16.30
2015,07,20,16,05,16.30
2015,07,20,16,06,16.30
2015,07,20,16,07,16.30
2015,07,20,16,08,16.30
2015,07,20,16,09,16.30
2015,07,20,16,10,16.30
2015,07,20,16,11,16.30
2015,07,20,16,12,16.30
2015,07,20,16,13,16.30
2015,07,20,16,14,16.30
2015,07,20,16,15,16.30
2015,07,20,16,16,16.90
2015,07,20,16,17,16.90
2015,07,20,16,18,16.90
2015,07,20,16,19,16.90
2015,07,20,16,20,16.90
2015,07,20,16,21,16.90
2015,07,20,16,22,16.90
2015,07,20,16,23,16.90
2015,07,20,16,24,16.90
2015,07,20,16,25,16.90
2015,07,20,16,26,16.90
2015,07,20,16,27,16.90
2015,07,20,16,28,16.90
2015,07,20,16,29,16.90
2015,07,20,16,30,16.90
2015,07,20,16,31,16.90
2015,07,20,16,32,16.90
2015,07,20,16,33,16.90
2015,07,20,16,34,16.90
2015,07,20,16,35,16.90
2015,07,20,16,36,16.90
2015,07,20,16,37,16.90
2015,07,20,16,38,16.90
2015,07,20,16,39,16.90
2015,07,20,16,40,16.90
2015,07,20,16,41,16.90
2015,07,20,16,42,16.90
2015,07,20,16,43,16.90
2015,07,20,16,44,16.90
2015,07,20,16,45,16.90
2015,07,20,16,46,17.50
2015,07,20,16,47,17.50
2015,07,20,16,48,17.50
2015,07,20,16,49,17.50
2015,07,20,16,50,17.50
2015,07,20,16,51,17.50
2015,07,20,16,52,17.50
2015,07,20,16,53,17.50
2015,07,20,16,54,17.50
2015,07,20,16,55,17.50
2015,07,20,16,56,17.50
2015,07,20,16,57,17.50
2015,07,20,16,58,17.50
2015,07,20,16,59,17.50
2015,07,20,17,00,17.50
2015,07,20,17,01,17.50
2015,07,20,17,02,17.50
2015,07,20,17,03,17.50
2015,07,20,17,04,17.50
2015,07,20,17,05,17.50
2015,07,20,17,06,17.50
2015,07,20,17,07,17.50
2015,07,20,17,08,17.50
2015,07,20,17,09,17.50
2015,07,20,17,10,17.50
2015,07,20,17,11,17.50
2015,07,20,17,12,17.50
2015,07,20,17,13,17.50
2015,07,20,17,14,17.50
2015,07,20,17,15,17.50
2015,07,20,17,16,17.30
2015,07,20,17,17,17.30
2015,07,20,17,18,17.30
2015,07,20,17,19,17.30
2015,07,20,17,20,17.30
2015,07,20,17,21,17.30
2015,07,20,17,22,17.30
2015,07,20,17,23,17.30
2015,07,20,17,24,17.30
2015,07,20,17,25,17.30
2015,07,20,17,26,17.30
2015,07,20,17,27,17.30
2015,07,20,17,28,17.30
2015,07,20,17,29,17.30
2015,07,20,17,30,17.30
2015,07,20,17,31,17.30
2015,07,20,17,32,17.30
2015,07,20,17,33,17.30
2015,07,20,17,34,17.30
2015,07,20,17,35,17.30
2015,07,20,17,36,17.30
2015,07,20,17,37,17.30
2015,07,20,17,38,17.30
2015,07,20,17,39,17.30
2015,07,20,17,40,17.30
2015,07,20,17,41,17.30
2015,07,20,17,42,17.30
2015,07,20,17,43,17.30
2015,07,20,17,44,17.30
2015,07,20,17,45,17.30
2015,07,20,17,46,17.30
2015,07,20,17,47,17.30
2015,07,20,17,48,17.30
2015,07,20,17,49,17.30
2015,07,20,17,50,17.30
2015,07,20,17,51,17.30
2015,07,20,17,52,17.30
2015,07,20,17,53,17.30
2015,07,20,17,54,17.30
2015,07,20,17,55,17.30
2015,07,20,17,56,17.30
2015,07,20,17,57,17.30
2015,07,20,17,58,17.30
2015,07,20,17,59,17.30
2015,07,20,18,00,17.30
2015,07,20,18,01,17.30
2015,07,20,18,02,17.30
2015,07,20,18,03,17.30
2015,07,20,18,04,17.30
2015,07,20,18,05,17.30
2015,07,20,18,06,17.30
2015,07,20,18,07,17.30
2015,07,20,18,08,17.30
2015,07,20,18,09,17.30
2015,07,20,18,10,17.30
2015,07,20,18,11,17.30
2015,07,20,18,12,17.30
2015,07,20,18,13,17.30
2015,07,20,18,14,17.30
2015,07,20,18,15,17.30
2015,07,20,18,16,16.90
2015,07,20,18,17,16.90
2015,07,20,18,18,16.90
2015,07,20,18,19,16.90
2015,07,20,18,20,16.90
2015,07,20,18,21,16.90
2015,07,20,18,22,16.90
2015,07,20,18,23,16.90
2015,07,20,18,24,16.90
2015,07,20,18,25,16.90
2015,07,20,18,26,16.90
2015,07,20,18,27,16.90
2015,07,20,18,28,16.90
2015,07,20,18,29,16.90
2015,07,20,18,30,16.90
2015,07,20,18,31,16.90
2015,07,20,18,32,16.90
2015,07,20,18,33,16.90
2015,07,20,18,34,16.90
2015,07,20,18,35,16.90
2015,07,20,18,36,16.90
2015,07,20,18,37,16.90